Location: Aranbee
(34.0885°N, 118.2342°W)
Time: 14:01:43
(UTC+00:00)

Tiros 1 - Pass Details

Date: 04 December 2020
Orbit: 630 x 663 km, 48.4° (Epoch: 21 January)

Event Time Altitude Azimuth Distance (km) Brightness Sun altitude
Rises 02:45:47 0° 312° (NW) 2,987 11.1 -24.8°
Reaches altitude 10° 02:48:16 10° 320° (NW) 2,069 10.1 -25.3°
Enters shadow 02:51:04 30° 345° (NNW) 1,177 8.5 -25.9°
Maximum altitude 02:52:47 41° 31° (NNE) 946 - -26.2°
Drops below altitude 10° 02:57:14 10° 101° (ESE) 2,044 - -27.1°
Sets 02:59:40 0° 109° (ESE) 2,946 - -27.6°
